Flag for South Africa Weather past 2 weeks in Bloemfontein, South Africa

Now
73 °F

Passing clouds.


Feels Like: 77 °F
Forecast: 49 / 75 °F
Wind: 3 mph from North

Location: Bloemfontein Airport


UV Index: 5 (Moderate)

Visibility: N/A


Pressure: 30.33 "Hg

Humidity: 36%

Dew point: 45 °F

Location of BloemfonteinLocation

Historic Weather in Bloemfontein

°F

Bloemfontein temperature yesterday

Maximum temperature yesterday: 79 °F (at 2:00 PM)
Minimum temperature yesterday: 45 °F (at 4:00 AM)
Average temperature yesterday: 62 °F

Past Weeks' High & Low Weather Summary

 TemperatureHumidityPressure
High79 °F (Apr 9, 2:00 PM)94% (Apr 15, 7:00 AM)30.45 "Hg (Apr 15, 7:00 AM)
Low39 °F (Apr 6, 5:00 AM)17% (Apr 12, 5:00 PM)30.12 "Hg (Apr 15, 1:00 PM)
Average60 °F59%30.30 "Hg
* Reported Apr 5 10:00 AM — Apr 20 10:00 AM, Bloemfontein, Weather by CustomWeather, © 2014

Note: Actual official high and low records may vary slightly from our data, if they occured in-between our weather recording intervals... More about our weather records

Advertising

Historic Weather Conditions — Data for Previous 24 hours

 ConditionsComfort  
Time TempWeatherWind HumidityBarometerVisibility
10:00 AM
Apr 20
73 °FPassing clouds.3 mph36%30.33 "HgN/A
9:00 AM63 °FPassing clouds.5 mph52%30.33 "HgN/A
8:49 AM63 °FPassing clouds.5 mph52%30.33 "HgN/A
8:00 AM57 °FSunny.No wind63%30.33 "Hg10 mi
7:00 AM46 °FSunny.3 mph82%30.30 "Hg10 mi
6:00 AM50 °FSunny.2 mph76%30.30 "Hg10 mi
5:00 AM48 °FClear.No wind82%30.30 "Hg10 mi
4:00 AM50 °FCool.2 mph76%30.30 "HgN/A
3:00 AM50 °FCool.No wind76%30.30 "HgN/A
2:00 AM52 °FCool.1 mph72%30.33 "HgN/A
1:00 AM54 °FCool.2 mph72%30.33 "HgN/A
12:00 AM55 °FCool.1 mph67%30.33 "HgN/A
11:00 PM
Apr 19
55 °FCool.No wind63%30.33 "HgN/A
10:00 PM59 °FCool.1 mph63%30.33 "HgN/A
9:00 PM59 °FRefreshingly cool.No wind59%30.33 "HgN/A
8:00 PM63 °FClear.3 mph52%30.33 "Hg10 mi
7:00 PM72 °FClear.6 mph38%30.30 "Hg10 mi
6:00 PM72 °FClear.2 mph38%30.30 "Hg10 mi
5:00 PM77 °FPassing clouds.3 mph24%30.30 "HgN/A
4:00 PM77 °FPassing clouds.7 mph30%30.27 "HgN/A
3:00 PM79 °FPassing clouds.5 mph28%30.27 "HgN/A
2:00 PM79 °FSunny.2 mph28%30.30 "Hg10 mi
1:00 PM77 °FPassing clouds.7 mph30%30.30 "HgN/A
12:00 PM77 °FPassing clouds.8 mph30%30.33 "HgN/A
11:00 AM77 °FPassing clouds.6 mph34%30.36 "HgN/A
Weather by CustomWeather, © 2014

See weather overview